Simultaneous Nadir Overpasses (SNOs) Predictions

Prediction of SNOs between GOES-17 and METOP-C Satellite Orbit:

Table of predicted SNOs for the next 14.0 days since TLE Epoch: 7/9/2022
Index Date Time (GOES-17) GOES-17 Lat,Lon METOP-C Lat,Lon Distance(km) Time Diff (sec)
1 07/09/2022 18:54:08 0.01,-137.26 0.85,-141.03 429.84 80
2 07/10/2022 18:36:08 0.02,-137.26 -0.26,-136.04 140.16 80
3 07/12/2022 06:52:28 -0.02,-137.27 -0.79,-140.63 383.02 80
4 07/13/2022 06:34:28 -0.02,-137.27 0.33,-135.63 186.32 80
5 07/14/2022 18:50:40 0.02,-137.27 0.68,-140.20 333.78 80
6 07/15/2022 18:32:41 0.02,-137.28 -0.44,-135.21 235.33 80
7 07/17/2022 06:49:00 -0.01,-137.28 -0.60,-139.80 288.51 80
8 07/18/2022 06:31:01 -0.00,-137.28 0.52,-134.81 280.54 80
9 07/19/2022 18:47:13 0.00,-137.28 0.49,-139.38 239.98 80
10 07/20/2022 18:29:14 0.00,-137.27 -0.63,-134.38 329.03 80
11 07/22/2022 06:48:13 -0.01,-137.27 -0.39,-138.98 194.91 80
